owner,sensor,date,latitude,longitude,vertical_datum,mass_concentration_of_oxygen_in_sea_water,qcFlag 
DISL,ioos:station:DISL:DISL:1,2014-06-01T00:00:00Z,30.2513,-88.0778,1.942,7.94,1111122 
DISL,ioos:station:DISL:DISL:1,2014-06-01T00:30:00Z,30.2513,-88.0778,2.054,7.74,1111122 
DISL,ioos:station:DISL:DISL:1,2014-06-01T01:00:00Z,30.2513,-88.0778,2.053,7.55,1111122 
DISL,ioos:station:DISL:DISL:1,2014-06-01T01:30:00Z,30.2513,-88.0778,2.02,7.28,1111122 
DISL,ioos:station:DISL:DISL:1,2014-06-01T02:00:00Z,30.2513,-88.0778,1.984,7.27,1111122 
DISL,ioos:station:DISL:DISL:1,2014-06-01T02:30:00Z,30.2513,-88.0778,1.976,7.23,1111122 
DISL,ioos:station:DISL:DISL:1,2014-06-01T03:00:00Z,30.2513,-88.0778,1.965,7.21,1111122 
DISL,ioos:station:DISL:DISL:1,2014-06-01T03:30:00Z,30.2513,-88.0778,1.945,7.15,1111122 
DISL,ioos:station:DISL:DISL:1,2014-06-01T04:00:00Z,30.2513,-88.0778,1.953,7.21,1111122 
DISL,ioos:station:DISL:DISL:1,2014-06-01T04:30:00Z,30.2513,-88.0778,1.928,7.27,1111122 
DISL,ioos:station:DISL:DISL:1,2014-06-01T05:00:00Z,30.2513,-88.0778,1.91,7.31,1111122 
DISL,ioos:station:DISL:DISL:1,2014-06-01T05:30:00Z,30.2513,-88.0778,1.897,7.18,1111122 
DISL,ioos:station:DISL:DISL:1,2014-06-01T06:00:00Z,30.2513,-88.0778,1.925,7.18,1111122 
DISL,ioos:station:DISL:DISL:1,2014-06-01T06:30:00Z,30.2513,-88.0778,1.931,7.2,1111122 
DISL,ioos:station:DISL:DISL:1,2014-06-01T07:00:00Z,30.2513,-88.0778,1.941,6.91,1111122 
DISL,ioos:station:DISL:DISL:1,2014-06-01T07:30:00Z,30.2513,-88.0778,1.934,6.92,1111122 
DISL,ioos:station:DISL:DISL:1,2014-06-01T08:00:00Z,30.2513,-88.0778,1.94,6.53,1111122 
DISL,ioos:station:DISL:DISL:1,2014-06-01T08:30:00Z,30.2513,-88.0778,1.969,6.45,1111122 
DISL,ioos:station:DISL:DISL:1,2014-06-01T09:00:00Z,30.2513,-88.0778,1.996,6.12,1111122 
DISL,ioos:station:DISL:DISL:1,2014-06-01T09:30:00Z,30.2513,-88.0778,2.024,5.95,1111122 
DISL,ioos:station:DISL:DISL:1,2014-06-01T10:00:00Z,30.2513,-88.0778,2.046,6.14,1111122 
DISL,ioos:station:DISL:DISL:1,2014-06-01T10:30:00Z,30.2513,-88.0778,2.07,6.29,1111122 
DISL,ioos:station:DISL:DISL:1,2014-06-01T11:00:00Z,30.2513,-88.0778,2.09,6.12,1111122 
DISL,ioos:station:DISL:DISL:1,2014-06-01T11:30:00Z,30.2513,-88.0778,2.108,6.36,1111122 
DISL,ioos:station:DISL:DISL:1,2014-06-01T12:00:00Z,30.2513,-88.0778,2.139,6.38,1111122 
DISL,ioos:station:DISL:DISL:1,2014-06-01T12:30:00Z,30.2513,-88.0778,2.178,6.62,1111122 
DISL,ioos:station:DISL:DISL:1,2014-06-01T13:00:00Z,30.2513,-88.0778,2.2,6.76,1111122 
DISL,ioos:station:DISL:DISL:1,2014-06-01T13:30:00Z,30.2513,-88.0778,2.222,6.77,1111122 
DISL,ioos:station:DISL:DISL:1,2014-06-01T14:00:00Z,30.2513,-88.0778,2.224,6.25,1111122 
DISL,ioos:station:DISL:DISL:1,2014-06-01T14:30:00Z,30.2513,-88.0778,2.247,6.1,1111122 
DISL,ioos:station:DISL:DISL:1,2014-06-01T15:00:00Z,30.2513,-88.0778,2.268,5.98,1111122 
DISL,ioos:station:DISL:DISL:1,2014-06-01T15:30:00Z,30.2513,-88.0778,2.277,5.96,1111122 
DISL,ioos:station:DISL:DISL:1,2014-06-01T16:00:00Z,30.2513,-88.0778,2.304,5.9,1111122 
DISL,ioos:station:DISL:DISL:1,2014-06-01T16:30:00Z,30.2513,-88.0778,2.303,5.94,1111122 
DISL,ioos:station:DISL:DISL:1,2014-06-01T17:00:00Z,30.2513,-88.0778,2.314,5.88,1111122 
DISL,ioos:station:DISL:DISL:1,2014-06-01T17:30:00Z,30.2513,-88.0778,2.33,6.03,1111122 
DISL,ioos:station:DISL:DISL:1,2014-06-01T18:00:00Z,30.2513,-88.0778,2.32,6.08,1111122 
DISL,ioos:station:DISL:DISL:1,2014-06-01T18:30:00Z,30.2513,-88.0778,2.332,6.76,1111122 
DISL,ioos:station:DISL:DISL:1,2014-06-01T19:00:00Z,30.2513,-88.0778,2.323,7.5,1111122 
DISL,ioos:station:DISL:DISL:1,2014-06-01T19:30:00Z,30.2513,-88.0778,2.309,8.04,1111122 
DISL,ioos:station:DISL:DISL:1,2014-06-01T20:00:00Z,30.2513,-88.0778,2.302,8.12,1111122 
DISL,ioos:station:DISL:DISL:1,2014-06-01T20:30:00Z,30.2513,-88.0778,2.27,8.04,1111122 
DISL,ioos:station:DISL:DISL:1,2014-06-01T21:00:00Z,30.2513,-88.0778,2.263,8.01,1111122 
DISL,ioos:station:DISL:DISL:1,2014-06-01T21:30:00Z,30.2513,-88.0778,2.228,8.17,1111122 
DISL,ioos:station:DISL:DISL:1,2014-06-01T22:00:00Z,30.2513,-88.0778,2.189,8.46,1111122 
DISL,ioos:station:DISL:DISL:1,2014-06-01T22:30:00Z,30.2513,-88.0778,2.166,8.41,1111122 
DISL,ioos:station:DISL:DISL:1,2014-06-01T23:00:00Z,30.2513,-88.0778,2.154,8.46,1111122 
DISL,ioos:station:DISL:DISL:1,2014-06-01T23:30:00Z,30.2513,-88.0778,2.119,8.43,1111122 
DISL,ioos:station:DISL:DISL:1,2014-06-02T00:00:00Z,30.2513,-88.0778,2.101,8.28,1111122 
DISL,ioos:station:DISL:DISL:1,2014-06-02T00:30:00Z,30.2513,-88.0778,2.084,8.14,1111122 
DISL,ioos:station:DISL:DISL:1,2014-06-02T01:00:00Z,30.2513,-88.0778,2.056,8.01,1111122 
DISL,ioos:station:DISL:DISL:1,2014-06-02T01:30:00Z,30.2513,-88.0778,2.036,7.74,1111122 
DISL,ioos:station:DISL:DISL:1,2014-06-02T02:00:00Z,30.2513,-88.0778,2.022,7.44,1111122 
DISL,ioos:station:DISL:DISL:1,2014-06-02T02:30:00Z,30.2513,-88.0778,2.0,7.44,1111122 
DISL,ioos:station:DISL:DISL:1,2014-06-02T03:00:00Z,30.2513,-88.0778,1.998,7.2,1111122 
DISL,ioos:station:DISL:DISL:1,2014-06-02T03:30:00Z,30.2513,-88.0778,1.986,7.37,1111122 
DISL,ioos:station:DISL:DISL:1,2014-06-02T04:00:00Z,30.2513,-88.0778,1.964,7.49,1111122 
DISL,ioos:station:DISL:DISL:1,2014-06-02T04:30:00Z,30.2513,-88.0778,1.961,7.57,1111122 
DISL,ioos:station:DISL:DISL:1,2014-06-02T05:00:00Z,30.2513,-88.0778,1.965,7.56,1111122 
DISL,ioos:station:DISL:DISL:1,2014-06-02T05:30:00Z,30.2513,-88.0778,1.955,7.32,1111122 
DISL,ioos:station:DISL:DISL:1,2014-06-02T06:00:00Z,30.2513,-88.0778,1.951,7.35,1111122 
DISL,ioos:station:DISL:DISL:1,2014-06-02T06:30:00Z,30.2513,-88.0778,1.965,7.35,1111122 
DISL,ioos:station:DISL:DISL:1,2014-06-02T07:00:00Z,30.2513,-88.0778,1.978,7.5,1111122 
DISL,ioos:station:DISL:DISL:1,2014-06-02T07:30:00Z,30.2513,-88.0778,1.984,7.58,1111122 
DISL,ioos:station:DISL:DISL:1,2014-06-02T08:00:00Z,30.2513,-88.0778,1.979,7.41,1111122 
DISL,ioos:station:DISL:DISL:1,2014-06-02T08:30:00Z,30.2513,-88.0778,2.033,7.28,1111122 
DISL,ioos:station:DISL:DISL:1,2014-06-02T09:00:00Z,30.2513,-88.0778,2.031,6.88,1111122 
DISL,ioos:station:DISL:DISL:1,2014-06-02T09:30:00Z,30.2513,-88.0778,2.063,6.9,1111122 
DISL,ioos:station:DISL:DISL:1,2014-06-02T10:00:00Z,30.2513,-88.0778,2.068,6.88,1111122 
DISL,ioos:station:DISL:DISL:1,2014-06-02T10:30:00Z,30.2513,-88.0778,2.084,6.89,1111122 
DISL,ioos:station:DISL:DISL:1,2014-06-02T11:00:00Z,30.2513,-88.0778,2.107,6.97,1111122 
DISL,ioos:station:DISL:DISL:1,2014-06-02T11:30:00Z,30.2513,-88.0778,2.119,6.99,1111122 
DISL,ioos:station:DISL:DISL:1,2014-06-02T12:00:00Z,30.2513,-88.0778,2.128,6.9,1111122 
DISL,ioos:station:DISL:DISL:1,2014-06-02T12:30:00Z,30.2513,-88.0778,2.114,6.97,1111122 
DISL,ioos:station:DISL:DISL:1,2014-06-02T13:00:00Z,30.2513,-88.0778,2.186,7.0,1111122 
DISL,ioos:station:DISL:DISL:1,2014-06-02T13:30:00Z,30.2513,-88.0778,2.175,7.01,1111122 
DISL,ioos:station:DISL:DISL:1,2014-06-02T14:00:00Z,30.2513,-88.0778,2.198,6.94,1111122 
DISL,ioos:station:DISL:DISL:1,2014-06-02T14:30:00Z,30.2513,-88.0778,2.212,6.75,1111122 
DISL,ioos:station:DISL:DISL:1,2014-06-02T15:00:00Z,30.2513,-88.0778,2.232,6.49,1111122 
DISL,ioos:station:DISL:DISL:1,2014-06-02T15:30:00Z,30.2513,-88.0778,2.239,6.48,1111122 
DISL,ioos:station:DISL:DISL:1,2014-06-02T16:00:00Z,30.2513,-88.0778,2.277,6.58,1111122 
DISL,ioos:station:DISL:DISL:1,2014-06-02T16:30:00Z,30.2513,-88.0778,2.279,6.56,1111122 
DISL,ioos:station:DISL:DISL:1,2014-06-02T17:00:00Z,30.2513,-88.0778,2.302,6.6,1111122 
DISL,ioos:station:DISL:DISL:1,2014-06-02T17:30:00Z,30.2513,-88.0778,2.307,6.7,1111122 
DISL,ioos:station:DISL:DISL:1,2014-06-02T18:00:00Z,30.2513,-88.0778,2.323,6.54,1111122 
DISL,ioos:station:DISL:DISL:1,2014-06-02T18:30:00Z,30.2513,-88.0778,2.301,6.74,1111122 
DISL,ioos:station:DISL:DISL:1,2014-06-02T19:00:00Z,30.2513,-88.0778,2.337,6.68,1111122 
DISL,ioos:station:DISL:DISL:1,2014-06-02T19:30:00Z,30.2513,-88.0778,2.236,6.82,1111122 
DISL,ioos:station:DISL:DISL:1,2014-06-02T20:00:00Z,30.2513,-88.0778,2.319,6.77,1111122 
DISL,ioos:station:DISL:DISL:1,2014-06-02T20:30:00Z,30.2513,-88.0778,2.324,6.72,1111122 
DISL,ioos:station:DISL:DISL:1,2014-06-02T21:00:00Z,30.2513,-88.0778,2.288,6.83,1111122 
DISL,ioos:station:DISL:DISL:1,2014-06-02T21:30:00Z,30.2513,-88.0778,2.298,6.79,1111122 
DISL,ioos:station:DISL:DISL:1,2014-06-02T22:00:00Z,30.2513,-88.0778,2.273,6.96,1111122 
DISL,ioos:station:DISL:DISL:1,2014-06-02T22:30:00Z,30.2513,-88.0778,2.262,7.4,1111122 
DISL,ioos:station:DISL:DISL:1,2014-06-02T23:00:00Z,30.2513,-88.0778,2.232,7.56,1111122 
DISL,ioos:station:DISL:DISL:1,2014-06-02T23:30:00Z,30.2513,-88.0778,2.2,7.3,1111122 
DISL,ioos:station:DISL:DISL:1,2014-06-03T00:00:00Z,30.2513,-88.0778,2.19,7.3,1111122 
DISL,ioos:station:DISL:DISL:1,2014-06-03T00:30:00Z,30.2513,-88.0778,2.172,6.96,1111122 
DISL,ioos:station:DISL:DISL:1,2014-06-03T01:00:00Z,30.2513,-88.0778,2.143,6.5,1111122 
DISL,ioos:station:DISL:DISL:1,2014-06-03T01:30:00Z,30.2513,-88.0778,2.112,6.39,1111122 
DISL,ioos:station:DISL:DISL:1,2014-06-03T02:00:00Z,30.2513,-88.0778,2.088,6.33,1111122 
DISL,ioos:station:DISL:DISL:1,2014-06-03T02:30:00Z,30.2513,-88.0778,2.095,6.22,1111122 
DISL,ioos:station:DISL:DISL:1,2014-06-03T03:00:00Z,30.2513,-88.0778,2.086,6.22,1111122 
DISL,ioos:station:DISL:DISL:1,2014-06-03T03:30:00Z,30.2513,-88.0778,2.076,6.55,1111122 
DISL,ioos:station:DISL:DISL:1,2014-06-03T04:00:00Z,30.2513,-88.0778,2.084,6.65,1111122 
DISL,ioos:station:DISL:DISL:1,2014-06-03T04:30:00Z,30.2513,-88.0778,2.071,7.39,1111122 
DISL,ioos:station:DISL:DISL:1,2014-06-03T05:00:00Z,30.2513,-88.0778,2.069,7.74,1111122 
DISL,ioos:station:DISL:DISL:1,2014-06-03T05:30:00Z,30.2513,-88.0778,2.063,7.55,1111122 
DISL,ioos:station:DISL:DISL:1,2014-06-03T06:00:00Z,30.2513,-88.0778,2.049,7.38,1111122 
DISL,ioos:station:DISL:DISL:1,2014-06-03T06:30:00Z,30.2513,-88.0778,2.034,7.01,1111122 
DISL,ioos:station:DISL:DISL:1,2014-06-03T07:00:00Z,30.2513,-88.0778,2.057,7.26,1111122 
DISL,ioos:station:DISL:DISL:1,2014-06-03T07:30:00Z,30.2513,-88.0778,2.068,7.28,1111122 
DISL,ioos:station:DISL:DISL:1,2014-06-03T08:00:00Z,30.2513,-88.0778,2.074,7.08,1111122 
DISL,ioos:station:DISL:DISL:1,2014-06-03T08:30:00Z,30.2513,-88.0778,2.08,6.62,1111122 
DISL,ioos:station:DISL:DISL:1,2014-06-03T09:00:00Z,30.2513,-88.0778,2.073,6.47,1111122 
DISL,ioos:station:DISL:DISL:1,2014-06-03T09:30:00Z,30.2513,-88.0778,2.08,6.56,1111122 
DISL,ioos:station:DISL:DISL:1,2014-06-03T10:00:00Z,30.2513,-88.0778,2.102,6.25,1111122 
DISL,ioos:station:DISL:DISL:1,2014-06-03T10:30:00Z,30.2513,-88.0778,2.129,6.28,1111122 
DISL,ioos:station:DISL:DISL:1,2014-06-03T11:00:00Z,30.2513,-88.0778,2.149,6.06,1111122 
DISL,ioos:station:DISL:DISL:1,2014-06-03T11:30:00Z,30.2513,-88.0778,2.16,5.99,1111122 
DISL,ioos:station:DISL:DISL:1,2014-06-03T12:00:00Z,30.2513,-88.0778,2.179,6.07,1111122 
DISL,ioos:station:DISL:DISL:1,2014-06-03T12:30:00Z,30.2513,-88.0778,2.2,6.3,1111122 
DISL,ioos:station:DISL:DISL:1,2014-06-03T13:00:00Z,30.2513,-88.0778,2.214,5.99,1111122 
DISL,ioos:station:DISL:DISL:1,2014-06-03T13:30:00Z,30.2513,-88.0778,2.228,6.01,1111122 
DISL,ioos:station:DISL:DISL:1,2014-06-03T14:00:00Z,30.2513,-88.0778,2.261,6.13,1111122 
DISL,ioos:station:DISL:DISL:1,2014-06-03T14:30:00Z,30.2513,-88.0778,2.279,6.1,1111122 
DISL,ioos:station:DISL:DISL:1,2014-06-03T15:00:00Z,30.2513,-88.0778,2.276,5.97,1111122 
DISL,ioos:station:DISL:DISL:1,2014-06-03T15:30:00Z,30.2513,-88.0778,2.285,5.63,1111122 
DISL,ioos:station:DISL:DISL:1,2014-06-03T16:00:00Z,30.2513,-88.0778,2.304,5.63,1111122 
DISL,ioos:station:DISL:DISL:1,2014-06-03T16:30:00Z,30.2513,-88.0778,2.32,5.52,1111122 
DISL,ioos:station:DISL:DISL:1,2014-06-03T17:00:00Z,30.2513,-88.0778,2.324,5.84,1111122 
DISL,ioos:station:DISL:DISL:1,2014-06-03T17:30:00Z,30.2513,-88.0778,2.334,5.78,1111122 
DISL,ioos:station:DISL:DISL:1,2014-06-03T18:00:00Z,30.2513,-88.0778,2.341,5.77,1111122 
DISL,ioos:station:DISL:DISL:1,2014-06-03T18:30:00Z,30.2513,-88.0778,2.345,5.74,1111122 
DISL,ioos:station:DISL:DISL:1,2014-06-03T19:00:00Z,30.2513,-88.0778,2.346,5.76,1111122 
DISL,ioos:station:DISL:DISL:1,2014-06-03T19:30:00Z,30.2513,-88.0778,2.342,6.2,1111122 
DISL,ioos:station:DISL:DISL:1,2014-06-03T20:00:00Z,30.2513,-88.0778,2.347,7.46,1111122 
DISL,ioos:station:DISL:DISL:1,2014-06-03T20:30:00Z,30.2513,-88.0778,2.325,7.63,1111122 
DISL,ioos:station:DISL:DISL:1,2014-06-03T21:00:00Z,30.2513,-88.0778,2.317,8.0,1111122 
DISL,ioos:station:DISL:DISL:1,2014-06-03T21:30:00Z,30.2513,-88.0778,2.318,8.06,1111122 
DISL,ioos:station:DISL:DISL:1,2014-06-03T22:00:00Z,30.2513,-88.0778,2.295,7.84,1111122 
DISL,ioos:station:DISL:DISL:1,2014-06-03T22:30:00Z,30.2513,-88.0778,2.265,7.5,1111122 
DISL,ioos:station:DISL:DISL:1,2014-06-03T23:00:00Z,30.2513,-88.0778,2.256,7.66,1111122 
DISL,ioos:station:DISL:DISL:1,2014-06-03T23:30:00Z,30.2513,-88.0778,2.236,7.79,1111122 
DISL,ioos:station:DISL:DISL:1,2014-06-04T00:00:00Z,30.2513,-88.0778,2.218,7.67,1111122 
DISL,ioos:station:DISL:DISL:1,2014-06-04T00:30:00Z,30.2513,-88.0778,2.191,7.63,1111122 
DISL,ioos:station:DISL:DISL:1,2014-06-04T01:00:00Z,30.2513,-88.0778,2.181,8.0,1111122 
DISL,ioos:station:DISL:DISL:1,2014-06-04T01:30:00Z,30.2513,-88.0778,2.157,8.0,1111122 
DISL,ioos:station:DISL:DISL:1,2014-06-04T02:00:00Z,30.2513,-88.0778,2.138,7.89,1111122 
DISL,ioos:station:DISL:DISL:1,2014-06-04T02:30:00Z,30.2513,-88.0778,2.128,7.91,1111122 
DISL,ioos:station:DISL:DISL:1,2014-06-04T03:00:00Z,30.2513,-88.0778,2.11,8.02,1111122 
DISL,ioos:station:DISL:DISL:1,2014-06-04T03:30:00Z,30.2513,-88.0778,2.117,8.0,1111122 
DISL,ioos:station:DISL:DISL:1,2014-06-04T04:00:00Z,30.2513,-88.0778,2.098,8.11,1111122 
DISL,ioos:station:DISL:DISL:1,2014-06-04T04:30:00Z,30.2513,-88.0778,2.099,7.91,1111122 
DISL,ioos:station:DISL:DISL:1,2014-06-04T05:00:00Z,30.2513,-88.0778,2.084,7.95,1111122 
DISL,ioos:station:DISL:DISL:1,2014-06-04T05:30:00Z,30.2513,-88.0778,2.084,7.84,1111122 
DISL,ioos:station:DISL:DISL:1,2014-06-04T06:00:00Z,30.2513,-88.0778,2.087,7.77,1111122 
DISL,ioos:station:DISL:DISL:1,2014-06-04T06:30:00Z,30.2513,-88.0778,2.084,7.47,1111122 
DISL,ioos:station:DISL:DISL:1,2014-06-04T07:00:00Z,30.2513,-88.0778,2.093,7.42,1111122 
DISL,ioos:station:DISL:DISL:1,2014-06-04T07:30:00Z,30.2513,-88.0778,2.103,7.38,1111122 
DISL,ioos:station:DISL:DISL:1,2014-06-04T08:00:00Z,30.2513,-88.0778,2.106,7.13,1111122 
DISL,ioos:station:DISL:DISL:1,2014-06-04T08:30:00Z,30.2513,-88.0778,2.112,6.77,1111122 
DISL,ioos:station:DISL:DISL:1,2014-06-04T09:00:00Z,30.2513,-88.0778,2.127,6.71,1111122 
DISL,ioos:station:DISL:DISL:1,2014-06-04T09:30:00Z,30.2513,-88.0778,2.137,6.61,1111122 
DISL,ioos:station:DISL:DISL:1,2014-06-04T10:00:00Z,30.2513,-88.0778,2.143,6.73,1111122 
DISL,ioos:station:DISL:DISL:1,2014-06-04T10:30:00Z,30.2513,-88.0778,2.153,6.66,1111122 
DISL,ioos:station:DISL:DISL:1,2014-06-04T11:00:00Z,30.2513,-88.0778,2.185,6.6,1111122 
DISL,ioos:station:DISL:DISL:1,2014-06-04T11:30:00Z,30.2513,-88.0778,2.198,6.47,1111122 
DISL,ioos:station:DISL:DISL:1,2014-06-04T12:00:00Z,30.2513,-88.0778,2.208,6.73,1111122 
DISL,ioos:station:DISL:DISL:1,2014-06-04T12:30:00Z,30.2513,-88.0778,2.215,6.85,1111122 
DISL,ioos:station:DISL:DISL:1,2014-06-04T13:00:00Z,30.2513,-88.0778,2.224,6.79,1111122 
DISL,ioos:station:DISL:DISL:1,2014-06-04T13:30:00Z,30.2513,-88.0778,2.234,6.62,1111122 
DISL,ioos:station:DISL:DISL:1,2014-06-04T14:00:00Z,30.2513,-88.0778,2.25,5.95,1111122 
DISL,ioos:station:DISL:DISL:1,2014-06-04T14:30:00Z,30.2513,-88.0778,2.248,6.25,1111122 
DISL,ioos:station:DISL:DISL:1,2014-06-04T15:00:00Z,30.2513,-88.0778,2.265,5.64,1111122 
DISL,ioos:station:DISL:DISL:1,2014-06-04T15:30:00Z,30.2513,-88.0778,2.261,5.3,1111122 
DISL,ioos:station:DISL:DISL:1,2014-06-04T16:00:00Z,30.2513,-88.0778,2.266,5.48,1111122 
DISL,ioos:station:DISL:DISL:1,2014-06-04T16:30:00Z,30.2513,-88.0778,2.274,5.16,1111122 
DISL,ioos:station:DISL:DISL:1,2014-06-04T17:00:00Z,30.2513,-88.0778,2.278,5.18,1111122 
DISL,ioos:station:DISL:DISL:1,2014-06-04T17:30:00Z,30.2513,-88.0778,2.292,5.22,1111122 
DISL,ioos:station:DISL:DISL:1,2014-06-04T18:00:00Z,30.2513,-88.0778,2.29,5.53,1111122 
DISL,ioos:station:DISL:DISL:1,2014-06-04T18:30:00Z,30.2513,-88.0778,2.285,5.79,1111122 
DISL,ioos:station:DISL:DISL:1,2014-06-04T19:00:00Z,30.2513,-88.0778,2.281,6.6,1111122 
DISL,ioos:station:DISL:DISL:1,2014-06-04T19:30:00Z,30.2513,-88.0778,2.265,6.32,1111122 
DISL,ioos:station:DISL:DISL:1,2014-06-04T20:00:00Z,30.2513,-88.0778,2.267,7.21,1111122 
DISL,ioos:station:DISL:DISL:1,2014-06-04T20:30:00Z,30.2513,-88.0778,2.246,8.42,1111122 
DISL,ioos:station:DISL:DISL:1,2014-06-04T21:00:00Z,30.2513,-88.0778,2.246,8.74,1111122 
DISL,ioos:station:DISL:DISL:1,2014-06-04T21:30:00Z,30.2513,-88.0778,2.24,10.24,1111122 
DISL,ioos:station:DISL:DISL:1,2014-06-04T22:00:00Z,30.2513,-88.0778,2.209,9.9,1111122 
DISL,ioos:station:DISL:DISL:1,2014-06-04T22:30:00Z,30.2513,-88.0778,2.213,9.51,1111122 
DISL,ioos:station:DISL:DISL:1,2014-06-04T23:00:00Z,30.2513,-88.0778,2.183,8.96,1111122 
DISL,ioos:station:DISL:DISL:1,2014-06-04T23:30:00Z,30.2513,-88.0778,2.174,9.23,1111122 
DISL,ioos:station:DISL:DISL:1,2014-06-05T00:00:00Z,30.2513,-88.0778,2.159,9.48,1111122 
DISL,ioos:station:DISL:DISL:1,2014-06-05T00:30:00Z,30.2513,-88.0778,2.152,9.62,1111122 
DISL,ioos:station:DISL:DISL:1,2014-06-05T01:00:00Z,30.2513,-88.0778,2.137,9.2,1111122 
DISL,ioos:station:DISL:DISL:1,2014-06-05T01:30:00Z,30.2513,-88.0778,2.117,9.15,1111122 
DISL,ioos:station:DISL:DISL:1,2014-06-05T02:00:00Z,30.2513,-88.0778,2.121,8.23,1111122 
DISL,ioos:station:DISL:DISL:1,2014-06-05T02:30:00Z,30.2513,-88.0778,2.106,7.99,1111122 
DISL,ioos:station:DISL:DISL:1,2014-06-05T03:00:00Z,30.2513,-88.0778,2.078,7.91,1111122 
DISL,ioos:station:DISL:DISL:1,2014-06-05T03:30:00Z,30.2513,-88.0778,2.084,7.69,1111122 
DISL,ioos:station:DISL:DISL:1,2014-06-05T04:00:00Z,30.2513,-88.0778,2.081,7.54,1111122 
DISL,ioos:station:DISL:DISL:1,2014-06-05T04:30:00Z,30.2513,-88.0778,2.068,7.68,1111122 
DISL,ioos:station:DISL:DISL:1,2014-06-05T05:00:00Z,30.2513,-88.0778,2.075,7.7,1111122 
DISL,ioos:station:DISL:DISL:1,2014-06-05T05:30:00Z,30.2513,-88.0778,2.064,7.66,1111122 
DISL,ioos:station:DISL:DISL:1,2014-06-05T06:00:00Z,30.2513,-88.0778,2.076,7.71,1111122 
DISL,ioos:station:DISL:DISL:1,2014-06-05T06:30:00Z,30.2513,-88.0778,2.083,7.42,1111122 
DISL,ioos:station:DISL:DISL:1,2014-06-05T07:00:00Z,30.2513,-88.0778,2.095,6.65,1111122 
DISL,ioos:station:DISL:DISL:1,2014-06-05T07:30:00Z,30.2513,-88.0778,2.092,6.21,1111122 
DISL,ioos:station:DISL:DISL:1,2014-06-05T08:00:00Z,30.2513,-88.0778,2.095,6.19,1111122 
DISL,ioos:station:DISL:DISL:1,2014-06-05T08:30:00Z,30.2513,-88.0778,2.108,6.09,1111122 
DISL,ioos:station:DISL:DISL:1,2014-06-05T09:00:00Z,30.2513,-88.0778,2.116,6.41,1111122 
DISL,ioos:station:DISL:DISL:1,2014-06-05T09:30:00Z,30.2513,-88.0778,2.125,7.04,1111122 
DISL,ioos:station:DISL:DISL:1,2014-06-05T10:00:00Z,30.2513,-88.0778,2.14,7.15,1111122 
DISL,ioos:station:DISL:DISL:1,2014-06-05T10:30:00Z,30.2513,-88.0778,2.154,6.67,1111122 
DISL,ioos:station:DISL:DISL:1,2014-06-05T11:00:00Z,30.2513,-88.0778,2.16,6.49,1111122 
DISL,ioos:station:DISL:DISL:1,2014-06-05T11:30:00Z,30.2513,-88.0778,2.165,6.82,1111122 
DISL,ioos:station:DISL:DISL:1,2014-06-05T12:00:00Z,30.2513,-88.0778,2.165,6.26,1111122 
DISL,ioos:station:DISL:DISL:1,2014-06-05T12:30:00Z,30.2513,-88.0778,2.184,6.14,1111122 
DISL,ioos:station:DISL:DISL:1,2014-06-05T13:00:00Z,30.2513,-88.0778,2.199,6.15,1111122 
DISL,ioos:station:DISL:DISL:1,2014-06-05T13:30:00Z,30.2513,-88.0778,2.217,5.99,1111122 
DISL,ioos:station:DISL:DISL:1,2014-06-05T14:00:00Z,30.2513,-88.0778,2.206,6.26,1111122 
DISL,ioos:station:DISL:DISL:1,2014-06-05T14:30:00Z,30.2513,-88.0778,2.212,5.97,1111122 
DISL,ioos:station:DISL:DISL:1,2014-06-05T15:00:00Z,30.2513,-88.0778,2.222,5.77,1111122 
DISL,ioos:station:DISL:DISL:1,2014-06-05T15:30:00Z,30.2513,-88.0778,2.238,6.09,1111122 
DISL,ioos:station:DISL:DISL:1,2014-06-05T16:00:00Z,30.2513,-88.0778,2.235,6.26,1111122 
DISL,ioos:station:DISL:DISL:1,2014-06-05T16:30:00Z,30.2513,-88.0778,2.236,6.41,1111122 
DISL,ioos:station:DISL:DISL:1,2014-06-05T17:00:00Z,30.2513,-88.0778,2.24,6.35,1111122 
DISL,ioos:station:DISL:DISL:1,2014-06-05T17:30:00Z,30.2513,-88.0778,2.244,6.6,1111122 
DISL,ioos:station:DISL:DISL:1,2014-06-05T18:00:00Z,30.2513,-88.0778,2.242,6.77,1111122 
DISL,ioos:station:DISL:DISL:1,2014-06-05T18:30:00Z,30.2513,-88.0778,2.237,7.09,1111122 
DISL,ioos:station:DISL:DISL:1,2014-06-05T19:00:00Z,30.2513,-88.0778,2.241,7.27,1111122 
DISL,ioos:station:DISL:DISL:1,2014-06-05T19:30:00Z,30.2513,-88.0778,2.226,7.63,1111122 
DISL,ioos:station:DISL:DISL:1,2014-06-05T20:00:00Z,30.2513,-88.0778,2.223,8.0,1111122 
DISL,ioos:station:DISL:DISL:1,2014-06-05T20:30:00Z,30.2513,-88.0778,2.219,8.1,1111122 
DISL,ioos:station:DISL:DISL:1,2014-06-05T21:00:00Z,30.2513,-88.0778,2.215,7.98,1111122 
DISL,ioos:station:DISL:DISL:1,2014-06-05T21:30:00Z,30.2513,-88.0778,2.213,7.57,1111122 
DISL,ioos:station:DISL:DISL:1,2014-06-05T22:00:00Z,30.2513,-88.0778,2.21,8.02,1111122 
DISL,ioos:station:DISL:DISL:1,2014-06-05T22:30:00Z,30.2513,-88.0778,2.193,8.08,1111122 
DISL,ioos:station:DISL:DISL:1,2014-06-05T23:00:00Z,30.2513,-88.0778,2.191,7.95,1111122 
DISL,ioos:station:DISL:DISL:1,2014-06-05T23:30:00Z,30.2513,-88.0778,2.184,7.84,1111122 
DISL,ioos:station:DISL:DISL:1,2014-06-06T00:00:00Z,30.2513,-88.0778,2.169,8.11,1111122 
DISL,ioos:station:DISL:DISL:1,2014-06-06T00:30:00Z,30.2513,-88.0778,2.151,7.74,1111122 
DISL,ioos:station:DISL:DISL:1,2014-06-06T01:00:00Z,30.2513,-88.0778,2.161,8.94,1111122 
DISL,ioos:station:DISL:DISL:1,2014-06-06T01:30:00Z,30.2513,-88.0778,2.134,8.66,1111122 
DISL,ioos:station:DISL:DISL:1,2014-06-06T02:00:00Z,30.2513,-88.0778,2.116,8.86,1111122 
DISL,ioos:station:DISL:DISL:1,2014-06-06T02:30:00Z,30.2513,-88.0778,2.116,8.08,1111122 
DISL,ioos:station:DISL:DISL:1,2014-06-06T03:00:00Z,30.2513,-88.0778,2.106,7.89,1111122 
DISL,ioos:station:DISL:DISL:1,2014-06-06T03:30:00Z,30.2513,-88.0778,2.106,6.85,1111122 
DISL,ioos:station:DISL:DISL:1,2014-06-06T04:00:00Z,30.2513,-88.0778,2.107,7.01,1111122 
DISL,ioos:station:DISL:DISL:1,2014-06-06T04:30:00Z,30.2513,-88.0778,2.089,6.74,1111122 
DISL,ioos:station:DISL:DISL:1,2014-06-06T05:00:00Z,30.2513,-88.0778,2.101,5.69,1111122 
DISL,ioos:station:DISL:DISL:1,2014-06-06T05:30:00Z,30.2513,-88.0778,2.111,5.87,1111122 
DISL,ioos:station:DISL:DISL:1,2014-06-06T06:00:00Z,30.2513,-88.0778,2.139,5.89,1111122 
DISL,ioos:station:DISL:DISL:1,2014-06-06T06:30:00Z,30.2513,-88.0778,2.134,7.01,1111122 
DISL,ioos:station:DISL:DISL:1,2014-06-06T07:00:00Z,30.2513,-88.0778,2.144,7.23,1111122 
DISL,ioos:station:DISL:DISL:1,2014-06-06T07:30:00Z,30.2513,-88.0778,2.15,7.19,1111122 
DISL,ioos:station:DISL:DISL:1,2014-06-06T08:00:00Z,30.2513,-88.0778,2.159,6.92,1111122 
DISL,ioos:station:DISL:DISL:1,2014-06-06T08:30:00Z,30.2513,-88.0778,2.158,6.6,1111122 
DISL,ioos:station:DISL:DISL:1,2014-06-06T09:00:00Z,30.2513,-88.0778,2.188,6.33,1111122 
DISL,ioos:station:DISL:DISL:1,2014-06-06T09:30:00Z,30.2513,-88.0778,2.165,6.1,1111122 
DISL,ioos:station:DISL:DISL:1,2014-06-06T10:00:00Z,30.2513,-88.0778,2.161,5.8,1111122 
DISL,ioos:station:DISL:DISL:1,2014-06-06T10:30:00Z,30.2513,-88.0778,2.18,5.91,1111122 
DISL,ioos:station:DISL:DISL:1,2014-06-06T11:00:00Z,30.2513,-88.0778,2.194,5.88,1111122 
DISL,ioos:station:DISL:DISL:1,2014-06-06T11:30:00Z,30.2513,-88.0778,2.192,5.99,1111122 
DISL,ioos:station:DISL:DISL:1,2014-06-06T12:00:00Z,30.2513,-88.0778,2.181,6.09,1111122 
DISL,ioos:station:DISL:DISL:1,2014-06-06T12:30:00Z,30.2513,-88.0778,2.196,5.58,1111122 
DISL,ioos:station:DISL:DISL:1,2014-06-06T13:00:00Z,30.2513,-88.0778,2.18,5.6,1111122 
DISL,ioos:station:DISL:DISL:1,2014-06-06T13:30:00Z,30.2513,-88.0778,2.179,5.82,1111122 
DISL,ioos:station:DISL:DISL:1,2014-06-06T14:00:00Z,30.2513,-88.0778,2.167,5.61,1111122 
DISL,ioos:station:DISL:DISL:1,2014-06-06T14:30:00Z,30.2513,-88.0778,2.183,6.81,1111122 
DISL,ioos:station:DISL:DISL:1,2014-06-06T15:00:00Z,30.2513,-88.0778,2.166,7.28,1111122 
DISL,ioos:station:DISL:DISL:1,2014-06-06T15:30:00Z,30.2513,-88.0778,2.17,6.64,1111122 